*** The Vicarage Weather Feed ***

NOAA NWS Hourly Roundups by Site

Regional Weather Roundup for Omaha, NE

To Select Another Site Choose from List

Select Site:  

179
ASUS43 KOAX 250403
RWRNE

WEATHER ROUNDUP FOR NEBRASKA
NATIONAL WEATHER SERVICE OMAHA NE
1100 PM CDT WED APR 24 2019

NOTES: SATELLITE DATA IS BEING USED TO AUGMENT CLOUD COVER ABOVE
       12000 FEET.
       "FAIR" INDICATES FEW OR NO CLOUDS BELOW 12,000 FEET WITH NO
       SIGNIFICANT WEATHER AND/OR OBSTRUCTIONS TO VISIBILITY.


NEZ001>004-019>022-054>056-250500-
NEBRASKA PANHANDLE

CITY           SKY/WX    TMP DP  RH WIND       PRES   REMARKS
SCOTTSBLUFF    FAIR      52  47  83 E14       29.90R
ALLIANCE       LGT RAIN  49  48  97 NE21G29   29.89F
CHADRON        LGT RAIN  51  48  89 NE20G31   29.96R
GORDON         CLOUDY    51  49  92 N14G20    29.94R
KIMBALL        CLOUDY    52  49  90 N18G24    29.96R
SIDNEY         LGT RAIN  53  48  83 N25G35    29.93R
$$

NEZ057>060-069>072-079>082-250500-
SOUTHWEST NEBRASKA

CITY           SKY/WX    TMP DP  RH WIND       PRES   REMARKS
NORTH PLATTE   FAIR      55  43  63 CALM      29.78R
IMPERIAL       FAIR      54  36  50 S3        29.81S
LEXINGTON      FAIR      59  43  56 S9        29.78F
MCCOOK         FAIR      62  40  44 S13       29.79S
OGALLALA       FAIR      52  42  69 NW3       29.79S
$$

NEZ005>010-023>029-035>040-094-250500-
NORTH CENTRAL NEBRASKA

CITY           SKY/WX    TMP DP  RH WIND       PRES   REMARKS
VALENTINE      LGT RAIN  55  47  74 N14G23    29.89R
AINSWORTH      HVY RAIN  52  50  91 N23G29    29.87F
BROKEN BOW     FAIR      52  46  80 NW3       29.77S
O`NEILL        CLOUDY    64  47  52 N9        29.78R
ORD            FAIR      54  45  71 CALM      29.75S
THEDFORD       MOCLDY    59  46  62 N17G30    29.84R
$$

NEZ041-046>049-061>064-073>077-083>087-250500-
SOUTH CENTRAL NEBRASKA

CITY           SKY/WX    TMP DP  RH WIND       PRES   REMARKS
GRAND ISLAND   FAIR      61  39  44 S9        29.78R
AURORA         FAIR      61  40  44 S14       29.78F
HASTINGS       FAIR      60  39  45 S6        29.79F
HEBRON         FAIR      58  40  52 S6        29.80S
HOLDREGE       FAIR      58  44  58 S10       29.80R
KEARNEY        FAIR      59  41  51 S12       29.79S
YORK           FAIR      57  37  47 CALM      29.79S
$$

NEZ011>018-030>034-042>045-250500-
NORTHEAST NEBRASKA

CITY           SKY/WX    TMP DP  RH WIND       PRES   REMARKS
NORFOLK        FAIR      65  39  38 S15       29.74R
ALBION         FAIR      60  44  54 CALM      29.76S
BLAIR          FAIR      62  41  46 S7        29.77F
COLUMBUS       FAIR      63  39  41 S10       29.77S
FREMONT        FAIR      62  40  45 SE6       29.77S
TEKAMAH        FAIR      53  32  44 S7        29.75S
WAYNE          FAIR      54  39  56 SW5       29.73F
$$

NEZ050>053-065>068-078-088>093-250500-
SOUTHEAST NEBRASKA

CITY           SKY/WX    TMP DP  RH WIND       PRES   REMARKS
LINCOLN        FAIR      59  40  49 S5        29.79S
OMAHA EPPLEY   FAIR      60  44  55 SE7       29.77S
BEATRICE       FAIR      58  41  53 CALM      29.79F
FALLS CITY     FAIR      56  50  80 SE7       29.81R
NEBRASKA CITY  FAIR      56  46  69 S7        29.80S
PLATTSMOUTH    FAIR      61  49  64 S6        29.79S
$$

NEZ044-045-051>053-067-250500-
OMAHA AREA

CITY           SKY/WX    TMP DP  RH WIND       PRES   REMARKS
OMAHA EPPLEY   FAIR      60  44  55 SE7       29.77S
BLAIR          FAIR      62  41  46 S7        29.77F
FREMONT        FAIR      62  40  45 SE6       29.77S
MILLARD        FAIR      62  45  52 SE5       29.78S
OFFUTT AFB     CLEAR     64  45  48 S5        29.77S
PLATTSMOUTH    FAIR      61  49  64 S6        29.79S
WAHOO          FAIR      55  36  49 S6        29.77F
$$



 

View Past Reports for Omaha, NE.

Products Courtesy of NOAA-NWS
NWS Information Parsing Script by Ken True at Saratoga Weather - Script by SE Lincoln Weather.

This data is offered only as a general guide to local weather conditions. It should not be relied upon in lieu of officially disseminated weather information for determining possible risk to persons or property. This site, including all information contained therein, is made available as is without warranties of any kind, either express or implied. The Vicarage Weather Feed© includes links to other sites for user convenience only. The content of any linked third-party site is not controlled by The Vicarage Weather Feed©. Access to any third-party website through The Vicarage Weather Feed©, regardless of whether or not the third-party site is a linked site, is entirely at the users own risk. Externally sourced content or material is excluded from The Vicarage Weather Feed© copyright and is the copyright and property of the respective provider. Skywarn® and the Skywarn® logo are registered trademarks of the National Oceanic and Atmospheric Administration, used with permission.